Clarksburg, WV

12:47 AM EST on December 06, 2019 (GMT -0500)
Benedum

Weather History for KCKB - November, 2019

Change the Weather History Date:

Tuesday, November 19, 2019

  Actual Average Record
Temperature  
Mean Temperature 40 °F -  
Max Temperature 43 °F 51 °F 77 °F (1938)
Min Temperature 36 °F 29 °F 13 °F (1924)
Degree Days  
Heating Degree Days 26    
Month to date heating degree days 437  
Moisture  
Dew Point 37 °F    
Average Humidity 89    
Maximum Humidity 100    
Minimum Humidity 80    
Precipitation  
Precipitation 0.00 in - - ()
Month to date precipitation 0.69  
Year to date precipitation 36.09  
Sea Level Pressure  
Sea Level Pressure 29.84 in    
Wind  
Wind Speed 4 mph (SW)    
Max Wind Speed 8 mph    
Max Gust Speed -    
Visibility 7 miles    
Events      
Averages and records for this station are not official NWS values.
T = Trace of Precipitation, MM = Missing Value Source: NWS Daily Summary

Daily Weather History Graph

Daily Weather History Graph

Search for Another Location

Airport or City:

Astronomy

Nov. 19, 2019 Rise Set
Actual Time 7:08 AM EST 5:03 PM EST
Civil Twilight 6:39 AM EST 5:32 PM EST
Nautical Twilight 6:07 AM EST 6:05 PM EST
Astronomical Twilight 5:35 AM EST 6:36 PM EST
Moon 11:57 PM EST (11/19) 1:18 PM EST (11/19)
Length of Visible Light 10h 52m
Length of Day
9h 54m
Waning Gibbous, 52% of the Moon is Illuminated
Nov 19
Waning Gibbous
Nov 19
Last Quarter
Nov 26
New
Dec 4
First Quarter
Dec 12
Full

Hourly Weather History & Observations

Time (EST) Temp. Windchill Dew Point Humidity Pressure Visibility Wind Dir Wind Speed Gust Speed Precip Events Conditions
12:53 AM - - - N/A% 29.77 in - North - - N/A   Unknown
1:53 AM - - - N/A% 29.77 in - North - - N/A   Unknown
2:53 AM - - - N/A% 29.78 in - North - - N/A   Unknown
3:53 AM - - - N/A% 29.77 in - North - - N/A   Unknown
4:53 AM - - - N/A% 29.78 in - North - - N/A   Unknown
5:53 AM - - - N/A% 29.79 in - North - - N/A   Unknown
6:53 AM - - - N/A% 29.81 in - North - - N/A   Unknown
7:53 AM - - - N/A% 29.82 in - North - - N/A   Unknown
8:53 AM - - - N/A% 29.82 in - North - - N/A   Unknown
9:53 AM - - - N/A% 29.84 in - North - - N/A   Unknown
10:53 AM - - - N/A% 29.84 in - North - - N/A   Unknown
12:53 PM 41.0 °F 39.0 °F 37.0 °F 86% 29.83 in 2.0 mi SW 3.5 mph - N/A   Overcast
12:58 PM 41.0 °F 39.0 °F 37.0 °F 86% 29.82 in 3.0 mi SSW 3.5 mph - N/A   Overcast
1:53 PM 41.0 °F 39.0 °F 37.0 °F 86% 29.82 in 3.0 mi SSW 3.5 mph - N/A   Overcast
2:01 PM 43.0 °F 40.3 °F 37.0 °F 80% 29.82 in 4.0 mi South 4.6 mph - N/A   Overcast
2:53 PM 43.0 °F 38.2 °F 37.0 °F 80% 29.83 in 5.0 mi SW 8.1 mph - N/A   Overcast
3:53 PM 43.0 °F 38.2 °F 37.0 °F 80% 29.85 in 5.0 mi WSW 8.1 mph - N/A   Overcast
4:02 PM 41.0 °F 39.0 °F 37.0 °F 86% 29.85 in 7.0 mi SW 3.5 mph - N/A   Overcast
4:53 PM 41.0 °F 39.0 °F 37.0 °F 86% 29.85 in 7.0 mi SW 3.5 mph - N/A   Overcast
4:59 PM 39.0 °F 36.8 °F 37.0 °F 93% 29.85 in 7.0 mi SSW 3.5 mph - N/A   Overcast
5:53 PM 39.0 °F 36.8 °F 37.0 °F 93% 29.87 in 10.0 mi SSW 3.5 mph - N/A   Clear
6:53 PM - - - N/A% 29.88 in 10.0 mi North - - N/A   Clear
7:53 PM 37.0 °F - 37.0 °F 100% 29.89 in 10.0 mi Calm Calm - N/A   Clear
8:53 PM 36.0 °F - 36.0 °F 100% 29.90 in 10.0 mi Calm Calm - N/A   Clear
9:53 PM 36.0 °F - 36.0 °F 100% 29.91 in 10.0 mi Calm Calm - N/A   Clear
10:53 PM - - - N/A% 29.92 in - North - - N/A   Mist
11:53 PM - - - N/A% 29.93 in - North - - N/A   Unknown